Location: Amsterdam
(30.7274°N, 84.4357°W)
Time: 19:54:06
(UTC+00:00)

Altair - Pass Details

Date: 12 August 2024
Orbit: 1501 x 1682 km, 47.2° (Epoch: 07 September)

Event Time Altitude Azimuth Distance (km) Brightness Sun altitude
Rises 02:28:37 0° 292° (WNW) 4,668 11.3 -24.8°
Reaches altitude 10° 02:32:56 10° 274° (W) 3,664 10.2 -25.5°
Maximum altitude 02:38:31 18° 236° (SW) 3,069 9.2 -26.5°
Drops below altitude 10° 02:44:04 10° 197° (SSW) 3,641 9.2 -27.4°
Enters shadow 02:44:37 - 195° (SSW) 3,746 9.3 -27.5°
Sets 02:48:24 0° 180° (S) 4,627 - -28.1°
